DW2802 Ogijares ES current weather conditions

sailwx.info

Wind from 333

Air temperature 10.6° C
Dewpoint 4.7° C

Last reported at 2014-Dec-22 11:50 UTC.
Time now 2014-Dec-22 12:46 UTC

Location: N 37°07' W 003°36'.
View on Google Maps.

See reports from other nearby stations

  
Tides and Currents Weather Stations Pressure Air Temp Water Temp Dewpoint Dewpoint Depression Visibility Wind Speed Wind Dir Waves Ship Positions
date/time (UTC)wind fromknots sea level pressurealtimeterstation pressurevisibilityair tempwater tempwave heightnotes
2014-Dec-22 11:50 333 10.6
2014-Dec-22 11:35 333 10.0
2014-Dec-22 11:20 332 9.4
2014-Dec-22 11:05 332 9.4
2014-Dec-22 10:50 335 9.4
2014-Dec-22 10:35 335 9.4
2014-Dec-22 10:20 335 8.9
2014-Dec-22 10:04 335 8.3
2014-Dec-22 09:49 335 7.2
2014-Dec-22 09:34 335 6.1
2014-Dec-22 09:19 335 5.6
2014-Dec-22 09:04 130 4.4
2014-Dec-22 08:49 134 4.4
2014-Dec-22 08:34 134 4.4
2014-Dec-22 08:20 134 3.9
2014-Dec-22 08:04 134 3.3
2014-Dec-22 07:49 134 2.8
2014-Dec-22 07:34 134 3.3
2014-Dec-22 07:19 134 3.9
2014-Dec-22 07:04 134 3.9
2014-Dec-22 06:49 134 3.9
2014-Dec-22 06:34 134 3.9
2014-Dec-22 06:19 134 3.9
2014-Dec-22 06:04 134 3.9
2014-Dec-22 05:49 134 3.9
2014-Dec-22 05:34 134 3.9
2014-Dec-22 05:19 134 3.9
2014-Dec-22 05:04 134 4.4
2014-Dec-22 04:49 134 4.4
2014-Dec-22 04:34 134 1 gusting 4 3.9
2014-Dec-22 04:19 134 2 gusting 3 3.9
2014-Dec-22 04:04 134 1 gusting 3 4.4
2014-Dec-22 03:49 134 2 gusting 3 4.4
2014-Dec-22 03:34 134 2 gusting 4 4.4
2014-Dec-22 03:19 134 2 gusting 4 4.4
2014-Dec-22 03:04 134 2 gusting 4 4.4
2014-Dec-22 02:49 134 2 gusting 4 4.4
2014-Dec-22 02:34 134 2 gusting 4 4.4
2014-Dec-22 02:19 134 1 gusting 3 4.4
2014-Dec-22 02:04 134 1 gusting 4 5.0
2014-Dec-22 01:49 134 3 gusting 6 5.0
2014-Dec-22 01:34 134 3 gusting 6 5.0
2014-Dec-22 01:19 131 3 gusting 4 5.0
2014-Dec-22 01:04 130 5.0
2014-Dec-22 00:48 130 5.0
2014-Dec-22 00:33 131 5.0
2014-Dec-22 00:18 131 2 gusting 3 5.0
2014-Dec-22 00:04 131 2 gusting 4 5.0
2014-Dec-21 23:48 131 2 gusting 4 5.0
2014-Dec-21 23:33 130 5.6
2014-Dec-21 23:18 130 6.1
2014-Dec-21 23:03 130 5.6
2014-Dec-21 22:48 130 5.6
2014-Dec-21 22:33 131 6.1
2014-Dec-21 22:18 130 6.1
2014-Dec-21 22:03 130 6.1
2014-Dec-21 21:48 130 6.1
2014-Dec-21 21:33 130 6.1
2014-Dec-21 21:18 131 6.7
2014-Dec-21 21:03 130 7.8
2014-Dec-21 20:48 131 7.2
2014-Dec-21 20:33 131 7.8
2014-Dec-21 20:18 131 8.3
2014-Dec-21 20:03 131 2 gusting 6 8.3
2014-Dec-21 19:48 111 2 gusting 5 7.2
2014-Dec-21 19:33 111 6.7
2014-Dec-21 19:18 111 7.2
2014-Dec-21 19:03 111 7.2
2014-Dec-21 18:48 111 7.2
2014-Dec-21 18:33 091 7.8
2014-Dec-21 18:18 082 8.9
2014-Dec-21 18:03 082 8.9
2014-Dec-21 17:48 072 8.9
2014-Dec-21 17:33 039 9.4
2014-Dec-21 17:18 013 11.1
2014-Dec-21 17:03 011 12.2
2014-Dec-21 16:48 011 13.9
2014-Dec-21 16:33 011 15.0
2014-Dec-21 16:18 011 14.4
2014-Dec-21 16:03 011 14.4
2014-Dec-21 15:48 011 14.4
2014-Dec-21 15:33 011 14.4
2014-Dec-21 15:18 011 13.9
2014-Dec-21 15:03 011 13.9
2014-Dec-21 14:48 011 13.9
2014-Dec-21 14:33 012 14.4
2014-Dec-21 14:18 029 14.4
2014-Dec-21 14:03 030 13.9
2014-Dec-21 13:48 038 13.9
2014-Dec-21 13:33 042 13.3
2014-Dec-21 13:18 049 13.9
2014-Dec-21 13:03 049 13.3
2014-Dec-21 12:48 049 12.8
2014-Dec-21 12:33 049 12.2
2014-Dec-21 12:18 049 12.2
2014-Dec-21 12:03 103 11.7
2014-Dec-21 11:47 103 11.7
2014-Dec-21 11:32 103 10.6
2014-Dec-21 11:17 103 10.6
2014-Dec-21 11:02 104 10.0
2014-Dec-21 10:47 103 10.0
2014-Dec-21 10:32 103 9.4
2014-Dec-21 10:17 104 8.3
2014-Dec-21 10:02 103 7.8
2014-Dec-21 09:47 104 7.2
2014-Dec-21 09:32 103 6.7
2014-Dec-21 09:17 104 6.7
2014-Dec-21 09:02 104 7.2
2014-Dec-21 08:47 104 6.1
2014-Dec-21 08:32 140 5.0
2014-Dec-21 08:17 140 3.9
2014-Dec-21 08:02 140 2 gusting 3 3.3
2014-Dec-21 07:47 140 2 gusting 3 3.3
2014-Dec-21 07:32 140 2 gusting 4 3.3
2014-Dec-21 07:16 140 2 gusting 4 3.3
2014-Dec-21 07:02 140 3 gusting 4 2.8
2014-Dec-21 06:46 140 2.8
2014-Dec-21 06:31 140 2.8
2014-Dec-21 06:16 140 3.3
2014-Dec-21 06:01 140 3.3
2014-Dec-21 05:46 140 3.3
2014-Dec-21 05:31 140 3.3
2014-Dec-21 05:16 140 3.9
2014-Dec-21 05:01 140 3.9
2014-Dec-21 04:46 140 4.4
2014-Dec-21 04:31 140 3.9
2014-Dec-21 04:16 140 3.9
2014-Dec-21 04:01 140 4.4
2014-Dec-21 03:46 140 5.0
2014-Dec-21 03:31 140 5.0
2014-Dec-21 03:16 140 5.6
2014-Dec-21 03:01 140 5.0
2014-Dec-21 02:46 140 4.4
2014-Dec-21 02:31 140 4.4
2014-Dec-21 02:16 140 5.0
2014-Dec-21 02:01 140 5.6
2014-Dec-21 01:46 140 5.6
2014-Dec-21 01:31 140 6.1
2014-Dec-21 01:16 140 6.1
2014-Dec-21 01:01 140 6.1
2014-Dec-21 00:46 140 6.7
2014-Dec-21 00:30 140 6.1
2014-Dec-21 00:15 140 6.7
2014-Dec-21 00:00 140 6.7
2014-Dec-20 23:45 140 6.7
2014-Dec-20 23:30 140 7.2
2014-Dec-20 23:15 140 1 gusting 3 7.2
2014-Dec-20 23:00 140 6.7
2014-Dec-20 22:45 140 7.8
2014-Dec-20 22:30 140 2 gusting 4 7.8
2014-Dec-20 22:15 140 2 gusting 6 7.8
2014-Dec-20 22:01 140 2 gusting 3 7.8
2014-Dec-20 21:45 140 0 gusting 4 8.3
2014-Dec-20 21:30 140 8.3
2014-Dec-20 21:15 158 3 gusting 5 7.8
2014-Dec-20 21:00 160 8.3
2014-Dec-20 20:45 160 1 gusting 5 8.3
2014-Dec-20 20:30 160 8.9
2014-Dec-20 20:15 160 8.9
2014-Dec-20 20:00 160 9.4
2014-Dec-20 19:45 160 9.4
2014-Dec-20 19:30 160 10.0
2014-Dec-20 19:15 160 10.6
2014-Dec-20 19:00 160 10.6
2014-Dec-20 18:45 160 2 gusting 5 10.6
2014-Dec-20 18:30 160 4 gusting 6 10.6
2014-Dec-20 18:15 160 2 gusting 4 11.1
2014-Dec-20 18:00 160 3 gusting 5 11.1
2014-Dec-20 17:45 161 11.1
2014-Dec-20 17:30 161 11.7
2014-Dec-20 17:15 161 12.2
2014-Dec-20 17:00 161 12.8
2014-Dec-20 16:45 161 15.0
2014-Dec-20 16:30 161 17.8
2014-Dec-20 16:15 161 18.9
2014-Dec-20 16:00 161 19.4
2014-Dec-20 15:45 161 19.4
2014-Dec-20 15:30 161 19.4
2014-Dec-20 15:15 161 19.4
2014-Dec-20 15:00 161 18.3
2014-Dec-20 14:45 161 18.3
2014-Dec-20 14:30 161 18.3
2014-Dec-20 14:15 161 18.3
2014-Dec-20 14:00 161 17.2
2014-Dec-20 13:45 162 17.2
2014-Dec-20 13:30 162 16.7
2014-Dec-20 13:15 162 16.7
2014-Dec-20 12:59 162 15.6
2014-Dec-20 12:44 162 15.6
2014-Dec-20 12:29 162 15.0
2014-Dec-20 12:14 162 14.4